�������l�o���
Date,Time,MP-1(��Sv/h),MP-2(��Sv/h),MP-3(��Sv/h),MP-4(��Sv/h),MP-5(��Sv/h),MP-6(��Sv/h),MP-7(��Sv/h),MP-8(��Sv/h),����,����(m/s),���J
2018/04/26,00:00,0.823,1.351,0.850,1.572,1.070,0.470,0.827,0.795,�k�k��,4.9,��
2018/04/26,00:10,0.824,1.351,0.852,1.568,1.069,0.470,0.827,0.795,�k��,4.9,��
2018/04/26,00:20,0.824,1.353,0.851,1.571,1.071,0.470,0.828,0.796,�k��,4.1,��
2018/04/26,00:30,0.823,1.350,0.851,1.570,1.070,0.471,0.828,0.798,�k��,3.4,��
2018/04/26,00:40,0.825,1.351,0.852,1.570,1.068,0.472,0.830,0.797,���k��,2.2,��
2018/04/26,00:50,0.824,1.351,0.851,1.569,1.070,0.470,0.828,0.797,�k��,2.0,��
2018/04/26,01:00,0.823,1.350,0.851,1.570,1.069,0.471,0.828,0.798,���k��,1.7,��
2018/04/26,01:10,0.821,1.353,0.850,1.572,1.071,0.471,0.829,0.797,���쓌,2.3,��
2018/04/26,01:20,0.823,1.350,0.852,1.569,1.069,0.470,0.829,0.796,���쓌,1.5,��
2018/04/26,01:30,0.824,1.348,0.852,1.571,1.067,0.471,0.828,0.796,��,1.1,��
2018/04/26,01:40,0.824,1.354,0.850,1.569,1.070,0.471,0.830,0.795,���k��,0.9,��
2018/04/26,01:50,0.824,1.351,0.852,1.571,1.071,0.470,0.828,0.796,�k�k��,0.6,��
2018/04/26,02:00,0.824,1.353,0.853,1.572,1.070,0.470,0.829,0.797,�k,1.1,��
2018/04/26,02:10,0.825,1.351,0.852,1.572,1.070,0.471,0.829,0.797,���k��,0.9,��
2018/04/26,02:20,0.826,1.352,0.851,1.572,1.070,0.471,0.830,0.798,���k��,1.2,��
2018/04/26,02:30,0.826,1.352,0.852,1.570,1.069,0.470,0.828,0.796,��,1.5,��
2018/04/26,02:40,0.823,1.351,0.851,1.568,1.070,0.471,0.829,0.796,���k��,2.5,��
2018/04/26,02:50,0.823,1.351,0.851,1.573,1.072,0.470,0.829,0.798,���k��,1.5,��
2018/04/26,03:00,0.823,1.351,0.851,1.572,1.068,0.471,0.828,0.798,���k��,1.2,��
2018/04/26,03:10,0.826,1.353,0.849,1.570,1.071,0.470,0.829,0.797,���k��,0.6,��
2018/04/26,03:20,0.825,1.352,0.851,1.569,1.070,0.470,0.830,0.796,�k��,2.0,��
2018/04/26,03:30,0.821,1.353,0.852,1.569,1.068,0.470,0.829,0.797,�k��,3.7,��
2018/04/26,03:40,0.826,1.351,0.851,1.570,1.067,0.471,0.829,0.797,�k��,4.6,��
2018/04/26,03:50,0.824,1.351,0.851,1.573,1.073,0.471,0.828,0.795,�k��,4.0,��
2018/04/26,04:00,0.823,1.352,0.850,1.570,1.070,0.471,0.830,0.797,�k��,5.0,��
2018/04/26,04:10,0.823,1.354,0.851,1.570,1.070,0.470,0.829,0.797,�k��,4.5,��
2018/04/26,04:20,0.822,1.353,0.849,1.571,1.072,0.471,0.829,0.797,�k�k��,5.3,��
2018/04/26,04:30,0.824,1.351,0.849,1.571,1.071,0.471,0.831,0.799,�k�k��,4.6,��
2018/04/26,04:40,0.823,1.354,0.852,1.571,1.071,0.471,0.829,0.797,�k�k��,5.0,��
2018/04/26,04:50,0.823,1.352,0.852,1.571,1.071,0.471,0.829,0.796,�k��,5.2,��
2018/04/26,05:00,0.824,1.354,0.852,1.572,1.071,0.469,0.829,0.797,�k�k��,4.9,��
2018/04/26,05:10,0.822,1.351,0.851,1.572,1.072,0.470,0.829,0.797,�k�k��,3.9,��
2018/04/26,05:20,0.825,1.351,0.852,1.572,1.072,0.472,0.830,0.797,�k,3.3,��
2018/04/26,05:30,0.824,1.352,0.853,1.573,1.073,0.470,0.829,0.796,�k�k��,3.3,��
2018/04/26,05:40,0.823,1.355,0.850,1.572,1.073,0.471,0.830,0.796,�k�k��,3.9,��
2018/04/26,05:50,0.822,1.352,0.852,1.573,1.073,0.471,0.830,0.798,�k�k��,4.4,��
2018/04/26,06:00,0.824,1.354,0.853,1.573,1.069,0.469,0.828,0.797,�k�k��,6.0,��
2018/04/26,06:10,0.823,1.354,0.851,1.573,1.070,0.470,0.830,0.797,�k�k��,5.2,��
2018/04/26,06:20,0.823,1.352,0.850,1.573,1.073,0.470,0.831,0.796,�k�k��,5.6,��
2018/04/26,06:30,0.823,1.356,0.851,1.574,1.073,0.470,0.832,0.797,�k��,4.7,��
2018/04/26,06:40,0.824,1.354,0.852,1.576,1.072,0.471,0.830,0.797,�k��,3.8,��
2018/04/26,06:50,0.823,1.353,0.854,1.573,1.073,0.471,0.830,0.797,�k�k��,2.6,��
2018/04/26,07:00,0.824,1.354,0.851,1.574,1.072,0.472,0.831,0.798,�k��,2.3,��
2018/04/26,07:10,0.827,1.357,0.852,1.574,1.072,0.468,0.832,0.798,�k��,2.9,��
2018/04/26,07:20,0.825,1.352,0.852,1.578,1.073,0.470,0.832,0.798,���k��,3.0,��
2018/04/26,07:30,0.825,1.350,0.853,1.577,1.072,0.470,0.833,0.799,�k��,3.2,��
2018/04/26,07:40,0.827,1.354,0.855,1.575,1.073,0.469,0.833,0.797,�k��,3.3,��
2018/04/26,07:50,0.826,1.353,0.855,1.576,1.074,0.471,0.834,0.797,�k��,4.4,��
2018/04/26,08:00,0.827,1.354,0.856,1.575,1.074,0.470,0.833,0.799,�k��,5.6,��
2018/04/26,08:10,0.829,1.351,0.856,1.582,1.075,0.470,0.832,0.800,�k,3.7,��
2018/04/26,08:20,0.829,1.353,0.854,1.579,1.076,0.469,0.833,0.798,�k,3.6,��
2018/04/26,08:30,0.829,1.353,0.854,1.580,1.074,0.471,0.831,0.797,�k�k��,4.3,��
2018/04/26,08:40,0.826,1.349,0.854,1.580,1.077,0.469,0.831,0.795,�k�k��,5.3,��
2018/04/26,08:50,0.828,1.353,0.854,1.581,1.074,0.469,0.832,0.796,�k�k��,4.5,��
2018/04/26,09:00,0.828,1.351,0.855,1.583,1.080,0.469,0.833,0.796,�k�k��,3.9,��
2018/04/26,09:10,0.828,1.353,0.853,1.583,1.079,0.470,0.831,0.796,�k�k��,7.3,��
2018/04/26,09:20,0.829,1.350,0.854,1.581,1.078,0.471,0.833,0.797,��,3.2,��
2018/04/26,09:30,0.831,1.355,0.856,1.583,1.081,0.471,0.831,0.797,���쐼,3.4,��
2018/04/26,09:40,0.830,1.354,0.853,1.584,1.079,0.470,0.833,0.796,���쐼,3.3,��
2018/04/26,09:50,0.833,1.355,0.856,1.584,1.079,0.471,0.832,0.796,���쐼,3.5,��
2018/04/26,10:00,0.830,1.355,0.856,1.586,1.081,0.471,0.834,0.797,��,2.3,��
2018/04/26,10:10,0.831,1.354,0.856,1.587,1.084,0.470,0.834,0.797,��,3.0,��
2018/04/26,10:20,0.833,1.354,0.856,1.586,1.083,0.472,0.831,0.798,���k��,2.6,��
2018/04/26,10:30,0.832,1.359,0.857,1.590,1.082,0.472,0.833,0.797,�k��,4.0,��
2018/04/26,10:40,0.835,1.357,0.858,1.587,1.086,0.473,0.835,0.798,���k��,4.2,��
2018/04/26,10:50,0.833,1.359,0.858,1.590,1.087,0.472,0.833,0.798,�k��,8.3,��
2018/04/26,11:00,0.833,1.360,0.856,1.590,1.086,0.472,0.835,0.798,�k��,9.5,��
2018/04/26,11:10,0.835,1.357,0.858,1.591,1.089,0.472,0.834,0.799,�k�k��,7.9,��
2018/04/26,11:20,0.835,1.362,0.861,1.589,1.088,0.472,0.834,0.799,�k�k��,7.6,��
2018/04/26,11:30,0.837,1.362,0.863,1.590,1.091,0.472,0.835,0.800,�k��,6.3,��
2018/04/26,11:40,0.836,1.363,0.861,1.590,1.088,0.473,0.838,0.800,�k��,6.8,��
2018/04/26,11:50,0.839,1.365,0.863,1.590,1.091,0.473,0.837,0.799,��,5.0,��
2018/04/26,12:00,0.839,1.364,0.861,1.592,1.090,0.474,0.834,0.800,��,4.8,��
2018/04/26,12:10,0.837,1.369,0.862,1.590,1.092,0.473,0.835,0.798,��,5.2,��
2018/04/26,12:20,0.840,1.367,0.863,1.592,1.091,0.473,0.836,0.800,���쐼,2.3,��
2018/04/26,12:30,0.839,1.366,0.864,1.593,1.092,0.474,0.835,0.800,���k��,3.7,��
2018/04/26,12:40,0.840,1.368,0.863,1.594,1.091,0.473,0.835,0.800,�k��,8.2,��
2018/04/26,12:50,0.840,1.367,0.863,1.595,1.092,0.475,0.835,0.801,�k�k��,5.9,��
2018/04/26,13:00,0.839,1.370,0.862,1.591,1.096,0.473,0.837,0.799,�k��,6.3,��
2018/04/26,13:10,0.838,1.371,0.864,1.596,1.096,0.474,0.837,0.801,�k��,5.8,��
2018/04/26,13:20,0.842,1.372,0.865,1.597,1.094,0.473,0.836,0.797,�k�k��,7.6,��
2018/04/26,13:30,0.841,1.370,0.866,1.599,1.098,0.476,0.836,0.801,�k�k��,6.5,��
2018/04/26,13:40,0.843,1.372,0.867,1.600,1.099,0.475,0.836,0.800,�k�k��,4.5,��
2018/04/26,13:50,0.842,1.371,0.866,1.599,1.097,0.473,0.835,0.802,��쓌,3.8,��
2018/04/26,14:00,0.842,1.373,0.866,1.600,1.097,0.474,0.837,0.800,�쓌,2.8,��
2018/04/26,14:10,0.843,1.370,0.865,1.598,1.097,0.474,0.837,0.802,�쓌,3.6,��
2018/04/26,14:20,0.842,1.371,0.866,1.597,1.098,0.474,0.837,0.800,��쓌,4.9,��
2018/04/26,14:30,0.841,1.371,0.867,1.600,1.099,0.474,0.836,0.800,�쓌,3.6,��
2018/04/26,14:40,0.840,1.369,0.870,1.598,1.098,0.475,0.836,0.800,��쓌,5.2,��
2018/04/26,14:50,0.841,1.374,0.868,1.602,1.099,0.474,0.837,0.800,�쓌,6.4,��
2018/04/26,15:00,0.841,1.374,0.867,1.602,1.101,0.476,0.837,0.802,�쓌,4.8,��
2018/04/26,15:10,0.841,1.373,0.867,1.601,1.102,0.475,0.838,0.801,��쓌,5.1,��
2018/04/26,15:20,0.841,1.371,0.866,1.600,1.100,0.473,0.835,0.802,���쓌,4.4,��
2018/04/26,15:30,0.843,1.372,0.867,1.604,1.100,0.474,0.836,0.800,�쓌,4.0,��
2018/04/26,15:40,0.842,1.373,0.865,1.601,1.101,0.476,0.837,0.801,�쓌,4.3,��
2018/04/26,15:50,0.842,1.376,0.867,1.603,1.100,0.475,0.837,0.801,�쓌,3.8,��
2018/04/26,16:00,0.841,1.374,0.866,1.602,1.101,0.475,0.838,0.800,�쓌,4.0,��
2018/04/26,16:10,0.842,1.375,0.868,1.601,1.102,0.473,0.837,0.800,�쓌,3.2,��
2018/04/26,16:20,0.840,1.376,0.869,1.601,1.102,0.475,0.837,0.799,�쓌,3.9,��
2018/04/26,16:30,0.842,1.376,0.867,1.603,1.101,0.479,0.837,0.800,�쓌,4.4,��
2018/04/26,16:40,0.842,1.377,0.867,1.604,1.102,0.477,0.838,0.799,��쓌,5.0,��
2018/04/26,16:50,0.844,1.377,0.867,1.604,1.102,0.478,0.839,0.800,��쓌,5.2,��
2018/04/26,17:00,0.842,1.381,0.869,1.605,1.102,0.477,0.840,0.802,��쓌,3.9,��
2018/04/26,17:10,0.841,1.380,0.868,1.602,1.101,0.478,0.837,0.800,��쓌,3.1,��
2018/04/26,17:20,0.843,1.383,0.868,1.604,1.100,0.478,0.837,0.801,�쓌,3.8,��
2018/04/26,17:30,0.842,1.379,0.869,1.601,1.101,0.479,0.839,0.802,�쓌,4.1,��
2018/04/26,17:40,0.842,1.383,0.869,1.603,1.101,0.479,0.837,0.804,��쓌,4.0,��
2018/04/26,17:50,0.841,1.383,0.867,1.604,1.101,0.478,0.837,0.804,��쓌,4.0,��
2018/04/26,18:00,0.843,1.381,0.868,1.604,1.104,0.478,0.837,0.803,��,3.2,��
2018/04/26,18:10,0.845,1.381,0.868,1.606,1.100,0.479,0.836,0.805,�쐼,2.5,��
2018/04/26,18:20,0.844,1.378,0.870,1.604,1.102,0.478,0.836,0.803,��,2.6,��
2018/04/26,18:30,0.846,1.380,0.869,1.607,1.103,0.478,0.838,0.805,���쐼,2.3,��
2018/04/26,18:40,0.845,1.379,0.869,1.609,1.105,0.478,0.838,0.803,���쐼,2.9,��
2018/04/26,18:50,0.846,1.382,0.871,1.607,1.104,0.478,0.839,0.804,��,2.5,��
2018/04/26,19:00,0.842,1.381,0.871,1.606,1.104,0.480,0.838,0.803,�쐼,1.7,��
2018/04/26,19:10,0.845,1.380,0.871,1.606,1.104,0.479,0.838,0.804,���쐼,2.6,��
2018/04/26,19:20,0.844,1.381,0.872,1.606,1.104,0.479,0.838,0.803,���쐼,3.4,��
2018/04/26,19:30,0.845,1.378,0.871,1.606,1.105,0.479,0.838,0.802,���쐼,2.3,��
2018/04/26,19:40,0.845,1.380,0.872,1.606,1.103,0.478,0.839,0.803,���k��,3.1,��
2018/04/26,19:50,0.845,1.378,0.870,1.609,1.104,0.479,0.840,0.805,���쐼,2.0,��
2018/04/26,20:00,0.843,1.378,0.871,1.607,1.104,0.478,0.838,0.803,���쐼,3.5,��
2018/04/26,20:10,0.845,1.379,0.871,1.604,1.103,0.479,0.839,0.802,���쐼,4.3,��
2018/04/26,20:20,0.843,1.379,0.871,1.607,1.102,0.477,0.839,0.803,�쐼,4.5,��
2018/04/26,20:30,0.845,1.379,0.872,1.608,1.105,0.477,0.840,0.804,�쐼,3.5,��
2018/04/26,20:40,0.846,1.379,0.871,1.607,1.104,0.477,0.840,0.801,��쐼,2.0,��
2018/04/26,20:50,0.842,1.378,0.871,1.608,1.104,0.479,0.839,0.804,��쓌,1.5,��
2018/04/26,21:00,0.846,1.379,0.871,1.606,1.105,0.477,0.839,0.803,��,2.3,��
2018/04/26,21:10,0.845,1.378,0.870,1.607,1.104,0.478,0.838,0.803,��,3.1,��
2018/04/26,21:20,0.846,1.377,0.869,1.608,1.103,0.477,0.840,0.802,��쓌,3.5,��
2018/04/26,21:30,0.844,1.378,0.870,1.606,1.104,0.477,0.839,0.805,��,4.5,��
2018/04/26,21:40,0.843,1.379,0.872,1.608,1.104,0.477,0.838,0.804,��,5.5,��
2018/04/26,21:50,0.846,1.379,0.871,1.608,1.102,0.477,0.838,0.804,��쐼,4.2,��
2018/04/26,22:00,0.843,1.379,0.872,1.606,1.105,0.476,0.838,0.803,��,4.7,��
2018/04/26,22:10,0.845,1.378,0.868,1.607,1.104,0.477,0.839,0.803,��쐼,2.9,��
2018/04/26,22:20,0.843,1.376,0.872,1.608,1.103,0.476,0.840,0.803,��쐼,3.9,��
2018/04/26,22:30,0.845,1.375,0.870,1.605,1.104,0.477,0.840,0.804,��쐼,3.2,��
2018/04/26,22:40,0.844,1.379,0.870,1.606,1.106,0.477,0.840,0.802,��쐼,2.9,��
2018/04/26,22:50,0.843,1.377,0.873,1.608,1.105,0.476,0.836,0.804,��쐼,2.3,��
2018/04/26,23:00,0.843,1.376,0.870,1.608,1.104,0.479,0.836,0.803,��쐼,3.2,��
2018/04/26,23:10,0.843,1.378,0.872,1.607,1.103,0.476,0.840,0.804,��쓌,1.2,��
2018/04/26,23:20,0.841,1.376,0.870,1.609,1.103,0.477,0.839,0.802,��,2.3,��
2018/04/26,23:30,0.845,1.379,0.872,1.608,1.104,0.477,0.838,0.801,��,3.1,��
2018/04/26,23:40,0.845,1.378,0.872,1.608,1.102,0.476,0.838,0.803,��쐼,3.2,��
2018/04/26,23:50,0.843,1.378,0.870,1.606,1.103,0.476,0.838,0.803,��,5.1,��
